RH
25 27 18 18 16 13 15 16 14 18 19 19 21 23 22 20 22 32 28 29 34 37 43 43 45 65 81 98 98 90 94 96 86 94 97 99 96 94 94 89 91 90 86
22 26 24 19 19 17 15 16 19 20 20 21 20 18 16 17 25 31 29 28 33 36 50 62 66 58 54 60 61 56 58 61 63 49 53 64 76 85 87 80 80 79 83
40 23 24 23 22 22 21 20 20 20 22 24 25 26 27 29 29 28 24 28 40 52 57 55 54 50 51 56 60 63 64 60 56 52 46 51 57 61 63 67 70 76 80
93 72 39 59 65 68 53 44 28 26 24 25 26 27 28 29 31 34 37 39 40 36 26 22 26 31 37 45 51 58 58 55 54 50 49 43 42 44 47 47 42 44 37
97 95 88 85 81 87 94 86 79 68 58 60 39 30 32 34 37 39 41 41 41 42 43 46 51 48 38 28 22 28 26 28 30 31 29 29 32 32 33 36 29 35 33
98 97 97 97 98 97 100 98 99 98 94 80 85 76 48 41 46 47 48 50 52 50 50 48 49 57 68 67 60 58 54 48 48 46 44 41 44 51 46 47 42 33 28
98 98 97 91 85 71 84 95 94 96 98 98 97 95 95 93 90 91 89 85 82 79 75 70 62 57 63 67 78 75 74 67 56 56 48 52 52 68 76 81 88 84 76
98 100 93 82 80 76 72 79 78 74 72 83 88 94 97 100 91 91 93 92 95 94 99 100 100 99 95 91 87 77 75 77 81 70 55 51 51 58 69 72 79 90 85
88 98 96 92 85 84 88 93 86 78 74 75 76 83 97 100 98 99 100 98 98 96 100 100 100 97 98 98 93 91 92 89 92 87 78 72 67 75 81 79 67 78 74
100 100 99 100 98 99 91 82 69 75 82 81 92 91 75 72 85 99 100 99 96 100 100 99 95 90 100 100 99 99 93 98 99 95 99 78 68 71 76 78 84 99 98
100 100 100 99 98 92 77 69 62 42 30 24 31 47 41 41 44 47 61 72 79 84 79 71 62 63 68 84 94 95 94 96 98 97 98 99 79 74 77 84 99 100 100
97 100 97 95 92 68 54 43 35 31 29 22 15 12 13 13 14 14 13 13 13 12 13 21 34 30 16 24 36 51 73 97 97 95 86 93 97 97 95 98 96 98 100
98 98 93 70 36 23 22 13 11 9 8 9 8 8 8 7 7 6 6 5 5 5 4 4 4 4 4 3 3 6 11 97 79 65 62 78 93 96 99 99 99 100 98
40 32 31 31 27 16 13 12 12 11 10 9 9 8 7 7 6 6 6 6 5 5 5 4 4 3 3 3 3 3 4 5 24 99 87 98 98 97 99 99 99 99 99
27 26 23 21 18 16 15 14 13 13 12 11 11 10 10 9 8 8 8 7 7 7 6 5 4 3 3 3 3 4 8 98 41 42 100 83 58 66 96 99 97 100 94
28 24 22 20 18 18 17 16 16 15 14 13 12 12 12 12 11 10 9 9 9 8 6 6 5 4 5 8 7 11 15 74 17 21 36 26 40 54 90 98 100 100 100
52 46 40 33 29 27 25 24 23 22 19 17 14 12 12 12 13 13 12 11 12 10 8 7 9 11 17 28 69 56 35 31 68 73 63 65 78 100 100 100 100 100 100
52 48 45 41 37 32 29 26 23 21 19 18 17 18 18 17 16 15 15 16 16 12 10 14 26 33 39 65 68 85 98 96 97 100 100 100 100 100 100 100 100 100 100
47 43 37 31 29 29 31 31 30 28 26 25 25 23 24 25 27 28 25 21 17 17 26 42 59 76 85 86 87 94 96 100 100 100 100 100 100 100 100 100 98 99 100
30 29 29 29 31 33 37 39 40 40 40 41 38 36 34 27 25 22 22 23 35 61 82 83 92 96 100 100 99 97 100 100 100 100 100 100 100 100 100 100 98 92 87
41 39 37 35 30 27 25 23 22 20 20 20 21 22 27 45 57 71 86 83 78 86 83 88 91 100 100 100 100 100 100 100 100 100 100 100 98 92 87 80 74 69 64
28 26 25 25 22 22 23 24 26 28 34 42 61 76 98 98 86 85 93 100 100 100 99 94 93 99 100 100 100 100 100 99 99 98 93 84 78 74 70 65 59 54 48
59 50 45 48 43 39 37 40 46 47 48 58 70 72 78 92 98 99 100 100 100 100 99 98 99 99 99 99 98 98 96 93 90 88 86 82 74 66 58 49 38 28 20
76 79 70 65 64 65 66 67 72 76 74 81 88 90 93 98 98 99 100 100 99 99 97 97 96 96 95 94 92 89 85 81 74 60 47 36 28 21 17 13 12 10 10
84 93 95 93 88 87 90 87 87 90 94 99 100 100 99 100 100 100 100 100 100 100 100 96 93 89 85 76 61 43 30 25 20 16 14 13 12 11 11 10 9 9 8
99 99 97 94 93 94 96 96 95 96 98 99 99 99 99 98 96 95 93 91 89 87 84 78 66 48 30 19 16 13 12 12 11 11 11 11 10 10 9 8 9 9 10
Wind_Speed
26 25 25 24 22 20 18 15 14 14 13 12 14 15 15 15 14 15 16 16 16 17 18 20 21 22 31 36 36 39 41 39 42 37 37 36 38 39 41 44 45 45 44
27 26 27 26 25 24 23 22 20 18 17 16 14 14 16 18 19 20 20 20 20 21 23 23 24 23 20 25 30 32 32 33 37 36 36 36 38 38 41 42 43 45 45
26 28 27 26 27 27 27 27 26 25 23 22 21 21 21 20 19 19 21 24 25 27 28 29 31 31 29 31 31 31 33 35 36 39 37 38 39 38 40 42 41 45 47
28 26 27 29 28 28 30 30 31 31 29 30 30 29 28 27 26 26 26 26 27 28 31 33 34 34 33 35 37 37 39 41 42 45 44 41 43 38 41 40 43 45 48
31 29 32 33 33 32 32 33 33 32 32 32 34 34 34 33 32 32 33 34 34 34 34 33 34 34 35 37 40 38 42 44 46 48 51 49 48 47 48 47 51 50 54
28 27 26 25 28 29 30 33 32 40 38 37 35 37 37 37 37 37 38 40 41 42 41 40 40 41 39 39 41 41 43 45 46 48 47 48 44 42 43 44 46 50 50
34 34 29 27 27 28 28 29 32 27 26 35 39 39 40 39 41 41 43 44 45 46 47 47 47 46 45 46 46 47 48 50 52 51 52 51 51 49 49 48 46 44 47
38 36 32 30 31 31 31 32 35 35 38 39 39 43 46 48 48 47 46 47 48 49 49 50 51 52 52 52 52 54 53 54 55 57 58 56 53 51 53 55 54 52 51
43 42 39 38 36 35 37 38 38 37 37 39 43 42 44 52 53 53 52 52 54 55 56 57 57 59 60 61 58 59 59 58 57 59 60 60 59 60 61 60 58 60 62
45 48 47 45 46 46 41 39 40 41 42 43 45 48 49 49 50 55 58 58 60 60 61 63 65 66 59 62 64 66 68 70 67 63 64 63 61 65 67 66 65 71 67
52 48 49 47 44 39 38 38 43 47 45 47 50 52 53 55 54 54 56 56 58 60 62 63 64 65 63 63 63 66 62 72 70 69 73 68 66 71 70 70 76 75 70
30 33 35 37 38 39 40 42 43 44 47 49 49 49 49 51 52 55 54 54 55 57 62 66 68 70 71 71 70 69 68 63 68 71 73 79 76 77 83 69 79 81 71
32 35 38 38 38 37 40 38 38 40 41 41 42 44 47 49 51 54 56 57 59 59 60 63 65 68 70 70 69 70 72 72 75 78 80 81 80 81 74 67 75 79 77
35 38 39 38 39 39 39 39 40 41 42 44 46 47 49 52 54 55 57 58 59 60 59 61 63 66 69 72 72 74 72 77 73 71 72 83 76 77 73 80 79 79 79
32 34 35 35 38 40 41 42 43 44 46 48 49 50 52 53 54 56 57 59 59 61 63 64 65 66 69 73 75 77 75 74 70 77 71 76 88 85 82 78 79 78 81
34 36 38 39 41 43 45 46 48 50 52 53 54 55 56 57 57 58 59 60 61 62 64 64 64 65 67 67 66 69 72 77 72 76 71 70 69 77 77 77 75 74 74
39 42 44 46 46 48 49 51 53 54 56 57 58 59 60 61 62 62 63 63 64 65 65 64 62 62 62 59 54 53 58 63 67 60 60 67 67 64 64 69 69 66 62
41 43 45 47 49 52 53 55 56 57 58 59 61 62 63 64 65 65 66 67 67 65 63 62 63 62 59 56 52 52 53 55 54 51 51 53 52 51 48 47 47 47 48
50 52 53 55 57 59 60 60 61 62 63 64 65 66 66 67 68 68 68 66 64 63 62 61 59 59 57 55 53 50 48 47 46 45 45 46 48 49 50 52 55 55 55
53 55 56 57 58 59 60 62 64 65 66 67 67 67 68 67 66 65 64 61 60 60 60 60 59 59 58 56 53 52 51 50 50 50 49 51 52 53 55 56 56 58 60
56 57 58 59 59 60 61 61 62 63 62 62 61 61 60 59 57 56 57 57 57 57 58 59 59 59 59 57 53 52 52 51 52 52 53 54 55 56 58 59 61 63 64
58 59 59 59 58 57 56 55 53 53 52 53 52 51 52 53 54 56 56 56 55 54 53 52 53 54 54 54 53 54 56 56 57 57 59 59 60 61 62 63 65 67 69
51 52 52 53 53 54 54 54 54 54 52 50 50 51 52 54 55 57 56 54 54 54 55 56 55 55 56 56 57 58 59 59 60 62 62 63 64 65 67 68 69 70 71
55 53 52 52 53 54 54 55 54 54 54 54 55 55 54 54 54 55 54 54 54 54 55 56 57 57 58 58 59 60 61 62 63 64 65 66 66 67 67 66 65 64 62
59 56 55 55 54 53 52 52 52 53 54 55 55 55 55 55 55 55 55 55 56 56 57 59 60 61 61 62 63 63 64 64 65 65 64 62 60 58 57 55 54 55 55
56 56 57 57 56 56 55 55 55 55 56 56 56 56 56 57 57 58 59 59 60 61 62 62 63 63 63 63 62 61 60 58 56 55 53 52 52 52 52 52 53 53 52
Wind_Direction
230 226 232 237 244 244 246 242 235 233 236 242 245 254 253 250 250 251 256 259 260 259 261 265 271 280 258 258 263 268 266 268 270 265 269 266 267 269 269 267 267 269 270
235 233 236 238 244 250 251 254 254 248 248 249 250 247 250 255 258 260 262 263 264 265 263 265 270 270 269 259 262 267 269 268 269 270 268 269 269 270 270 269 270 272 273
237 239 241 245 247 250 256 262 265 267 268 270 267 263 261 259 259 260 261 263 267 269 270 271 272 274 272 270 269 271 271 269 270 272 271 271 272 272 274 275 278 277 277
228 232 242 244 246 252 253 256 259 263 267 269 271 273 275 274 274 274 272 269 267 268 269 270 269 271 271 272 273 273 274 275 277 277 279 279 278 276 273 277 275 274 275
239 232 232 236 241 243 248 252 253 251 254 260 264 265 268 271 273 272 272 275 277 277 275 274 272 272 272 273 273 273 273 274 275 276 278 279 277 276 276 274 273 273 272
247 245 246 248 254 259 266 274 281 270 261 253 255 257 258 262 265 267 270 272 271 272 272 272 272 273 274 272 274 275 275 275 276 278 280 280 280 279 279 280 281 278 274
242 249 251 255 256 260 260 266 272 276 269 266 265 265 263 259 258 260 264 268 269 270 272 273 274 272 270 270 271 273 274 276 279 278 277 278 277 278 276 279 284 283 284
245 253 255 255 261 266 269 271 274 274 272 271 272 268 267 265 267 269 271 270 269 270 271 272 274 273 271 271 270 272 275 277 276 277 280 280 279 279 280 282 283 283 288
243 246 252 256 260 266 269 276 275 273 271 272 273 271 267 267 269 270 269 269 271 273 274 274 272 271 273 271 272 272 275 276 277 277 278 281 282 280 280 282 282 283 283
242 243 246 250 255 262 264 264 266 267 268 269 267 267 270 269 268 267 265 265 267 267 267 267 268 269 275 274 273 273 275 276 273 275 272 277 278 281 281 281 280 283 281
233 242 248 250 253 255 263 267 265 261 263 265 265 265 267 269 272 274 275 277 278 277 275 275 275 276 277 277 277 276 276 273 271 274 271 270 275 279 280 281 281 277 277
246 247 253 259 263 267 268 268 267 268 269 272 274 273 272 271 271 272 273 274 276 277 278 278 274 274 277 277 277 276 272 275 281 277 275 275 271 271 275 274 274 274 273
273 273 273 272 273 274 273 272 272 272 271 274 276 277 278 279 280 281 282 282 283 284 284 283 282 282 280 280 279 276 274 271 274 272 277 277 275 278 281 278 276 272 275
274 272 270 269 267 266 265 266 266 267 269 270 271 273 275 276 278 279 281 283 285 286 287 286 283 281 280 279 277 277 277 271 271 272 268 269 275 269 276 280 276 277 275
271 269 266 264 265 267 268 269 270 272 273 274 275 276 277 278 280 282 284 286 287 289 290 291 288 286 284 281 279 276 273 268 271 269 269 272 274 278 275 281 275 278 282
275 272 271 270 270 270 271 273 274 275 276 278 280 281 282 284 286 288 289 290 290 292 293 293 291 289 288 287 283 273 266 265 272 273 273 275 279 278 276 277 278 280 280
278 278 277 276 276 277 277 277 277 278 280 281 282 283 284 286 287 288 289 291 292 292 294 293 293 294 292 289 289 283 275 273 271 275 277 279 282 282 278 276 278 279 278
281 281 281 282 282 282 282 282 283 283 283 283 283 283 284 285 286 287 288 289 290 291 288 288 289 289 290 291 292 287 283 280 276 280 279 279 278 279 280 278 277 276 276
282 284 286 287 287 286 285 284 283 282 283 283 284 285 285 285 286 287 287 287 286 285 285 285 285 282 283 285 284 282 282 282 282 281 280 280 281 280 281 282 283 283 283
280 281 282 283 283 282 282 282 282 283 283 283 284 285 285 284 284 283 283 283 283 281 280 280 280 280 282 283 282 282 281 280 279 280 280 280 279 280 282 284 286 288 288
282 283 284 285 285 286 286 286 285 285 284 284 283 283 284 283 282 281 280 279 280 281 282 282 281 282 281 280 280 281 282 284 285 286 286 286 286 286 286 288 288 289 290
283 283 283 283 284 284 284 285 284 284 285 285 282 281 280 279 280 279 280 280 278 277 279 280 282 283 283 284 285 287 287 287 287 286 286 286 286 287 287 289 290 291 292
285 285 283 280 280 281 281 281 283 283 283 283 283 284 285 285 284 282 280 279 280 281 281 282 282 282 283 283 284 284 284 284 285 285 285 285 287 288 288 290 291 291 292
284 282 282 281 280 280 280 281 280 279 278 279 281 282 283 282 281 279 280 281 282 282 282 282 283 283 283 284 284 285 285 285 285 286 287 287 288 289 289 289 290 291 292
280 278 278 279 279 279 279 280 280 280 280 281 281 281 281 281 280 280 281 281 282 283 284 284 285 285 286 286 286 287 287 287 287 288 289 289 290 291 291 293 293 295 296
277 277 277 278 278 279 279 280 281 281 282 282 282 282 282 283 283 283 284 285 285 285 286 286 286 286 286 286 286 287 287 288 289 289 290 290 291 292 293 295 296 297 298